RH
65 61 60 62 61 59 56 54 52 53 52 50 45 42 41 42 46 48 43 40 39 38 37 36 37 33 28 21 22 22 22 21 20 21 21 21 22 21 21 24 24 25 24 26 26
66 65 63 60 59 59 58 56 53 57 55 49 46 41 38 33 32 35 41 41 42 43 42 38 39 37 31 24 20 25 24 19 19 19 20 22 22 22 21 22 25 26 26 25 28
69 65 63 63 64 64 58 54 55 54 54 53 48 45 42 36 30 30 35 46 47 48 46 42 41 38 36 33 24 29 28 28 28 24 24 22 22 21 18 20 20 20 21 28 27
68 64 63 61 59 59 56 55 53 54 53 49 47 42 36 32 35 37 37 39 36 38 38 39 40 40 40 35 35 34 25 35 30 31 27 24 23 22 20 19 18 19 20 20 19
72 69 67 65 59 56 53 48 47 45 45 44 39 38 31 28 27 32 31 31 33 35 34 35 35 34 33 34 34 34 31 29 32 32 26 27 25 24 21 21 19 18 20 20 20
71 69 66 62 61 58 57 57 54 54 55 54 48 41 43 33 37 33 33 35 36 32 26 24 27 23 22 22 28 29 32 31 31 32 30 29 26 24 23 24 22 20 18 21 21
71 69 69 68 68 64 64 62 58 58 55 56 55 50 40 35 42 39 39 37 38 33 25 20 18 20 22 21 24 28 32 31 26 28 32 30 29 27 25 24 24 22 21 20 18
76 72 72 72 73 66 65 66 61 61 56 59 54 54 36 37 36 37 38 36 38 34 28 23 15 14 19 24 23 39 40 43 21 30 31 34 35 25 26 27 24 23 21 21 21
76 73 73 73 74 66 66 68 62 58 58 55 54 52 39 33 34 36 35 33 31 29 28 20 19 18 22 20 42 40 41 34 24 28 33 33 33 29 26 27 26 23 22 22 22
73 73 71 77 81 76 70 66 60 57 54 50 49 47 40 34 33 33 33 32 31 32 24 21 43 46 23 43 58 26 37 27 30 27 38 36 30 26 24 28 24 23 22 22 24
71 74 74 80 72 64 57 50 50 50 49 47 46 44 42 41 40 37 37 36 34 37 23 30 53 49 24 24 36 39 41 45 40 37 40 37 34 28 26 26 23 22 21 23 24
72 71 72 61 48 42 46 39 41 44 42 43 42 40 36 35 37 36 36 40 40 37 33 43 57 55 59 41 48 51 42 41 40 37 34 36 36 32 29 28 24 25 24 23 25
48 53 61 65 63 53 32 29 31 26 30 34 34 32 29 29 28 27 32 40 44 40 44 48 47 44 42 31 47 55 60 52 46 36 32 34 36 35 31 34 27 26 26 26 25
22 21 20 24 27 28 26 23 21 19 23 23 23 24 24 24 23 22 23 27 34 38 39 43 48 46 40 43 43 50 44 42 37 44 34 34 37 34 33 32 33 33 29 30 27
40 17 14 14 14 14 14 13 15 18 35 24 38 36 30 28 31 30 30 32 28 27 31 30 35 41 43 41 36 37 39 34 33 37 32 32 34 32 32 31 30 29 33 33 28
37 23 10 10 10 10 10 10 12 10 67 21 35 38 37 30 27 32 44 46 38 35 35 35 29 30 36 40 38 42 46 40 34 33 41 34 34 33 32 30 24 18 18 17 16
27 28 29 15 16 14 15 9 16 33 22 21 27 46 46 40 51 55 40 46 60 54 48 36 36 29 30 30 28 35 38 47 46 50 46 34 35 33 32 30 25 24 23 24 24
48 37 34 35 40 26 17 15 13 18 18 26 24 26 29 30 45 50 63 69 70 70 81 82 70 47 50 48 35 29 34 47 56 47 38 32 39 35 34 32 32 30 28 24 24
86 71 44 55 82 61 45 36 22 26 24 22 26 30 27 29 36 33 47 43 45 39 41 86 74 64 56 57 67 45 39 42 43 40 52 40 37 35 30 32 34 33 29 28 30
93 86 56 86 100 96 90 53 19 18 23 30 39 36 40 36 43 45 49 45 45 54 70 69 74 63 50 48 58 61 46 45 48 76 75 48 45 44 38 33 41 37 36 33 32
98 93 57 76 95 98 98 73 44 24 22 30 28 34 38 40 56 59 60 58 55 57 71 73 76 70 59 45 42 59 86 68 66 60 82 73 66 88 75 83 71 68 56 52 50
89 97 76 65 77 78 97 78 55 35 54 50 42 35 36 44 50 66 68 59 63 58 56 64 70 72 73 51 57 49 82 96 99 98 97 80 80 98 99 98 98 86 70 78 89
96 90 84 82 100 83 81 86 78 58 63 71 71 57 59 49 68 61 69 60 64 68 65 66 85 85 63 58 73 88 94 96 89 95 94 97 98 98 94 95 97 100 100 100 99
97 95 82 86 82 85 92 96 98 74 67 72 80 71 69 67 54 70 62 62 68 71 64 74 67 62 70 61 55 51 49 59 56 59 57 74 58 58 41 44 68 73 87 89 85
92 91 87 79 91 91 80 85 86 76 68 88 80 72 66 76 52 63 72 72 71 80 74 84 70 54 50 59 62 52 58 44 46 65 61 56 41 35 33 36 34 46 51 44 38
94 94 87 81 80 89 92 97 94 95 96 95 97 85 83 88 80 77 78 80 80 78 87 89 80 82 74 53 54 58 40 33 31 37 40 35 37 29 34 41 37 35 34 42 42
84 83 81 72 74 82 80 79 92 99 86 92 93 95 96 84 74 77 82 90 96 81 84 86 84 90 87 77 70 75 39 34 35 50 48 46 41 47 38 38 36 43 41 51 49
Wind_Speed
23 23 24 23 23 24 24 24 25 23 23 21 21 21 22 19 15 16 18 17 15 13 10 7 8 9 9 11 13 8 12 16 15 10 14 12 10 10 10 9 15 16 15 13 14
26 26 26 26 26 26 26 26 27 26 25 25 24 23 25 24 21 16 19 17 14 11 8 5 5 8 9 8 11 11 14 15 14 12 17 18 11 11 13 16 14 13 16 19 19
28 27 29 28 29 29 29 28 29 28 27 29 29 27 25 24 27 21 13 12 11 9 9 8 10 12 10 11 13 15 18 16 19 20 22 26 18 16 13 17 20 22 23 20 21
31 31 31 31 32 30 32 31 31 30 29 30 32 29 29 26 21 13 19 19 20 21 22 20 20 17 18 16 16 21 21 18 21 20 18 23 25 22 23 23 19 21 26 26 25
32 33 33 32 33 33 32 32 32 33 34 34 33 35 29 27 23 23 22 21 18 18 21 19 19 20 22 23 22 23 23 27 26 22 22 23 25 25 26 26 21 17 26 25 25
32 33 34 36 34 35 35 34 34 35 36 35 34 35 34 30 18 17 20 20 17 19 16 16 17 17 23 25 24 26 26 29 31 30 28 30 31 26 30 23 26 21 19 20 23
35 36 36 38 38 38 37 37 37 37 38 41 37 37 35 29 27 25 27 23 23 18 16 16 19 21 23 26 19 21 26 29 30 33 34 34 37 37 31 29 25 23 22 21 24
34 35 37 37 39 39 38 36 36 38 36 38 38 38 32 28 26 23 25 23 23 22 21 19 21 25 26 27 26 25 27 31 20 20 22 25 35 24 26 31 28 26 24 29 30
39 39 39 39 39 40 37 36 35 35 35 35 35 35 28 24 21 20 19 18 21 21 24 21 21 24 25 27 28 27 27 28 27 13 11 19 30 22 20 27 33 28 29 30 31
42 40 40 40 39 38 37 36 35 35 35 34 36 33 22 19 23 23 22 19 20 21 21 22 21 22 26 28 29 29 26 26 26 18 17 25 23 19 18 32 29 32 29 28 32
43 41 40 38 36 35 32 32 36 36 36 36 34 35 29 28 27 25 23 26 27 21 21 21 25 34 31 28 28 27 29 31 22 18 29 31 31 19 14 24 30 29 30 29 34
38 37 36 34 32 32 32 33 35 36 43 37 38 43 38 32 41 34 29 26 28 29 25 25 37 33 31 28 27 27 30 33 32 27 30 29 36 30 25 22 26 27 30 33 34
32 31 31 31 32 31 30 29 29 28 39 49 41 45 41 35 43 38 31 35 33 33 30 35 29 20 29 34 32 34 35 34 36 30 33 33 42 37 30 21 22 27 27 31 36
28 28 27 27 27 29 27 24 23 24 26 39 27 21 16 25 35 35 32 37 44 44 39 40 39 36 34 33 27 40 31 34 40 39 24 21 29 35 30 31 29 29 33 33 39
26 25 25 23 24 24 20 17 17 14 6 6 4 5 4 11 8 12 11 21 34 37 32 46 24 21 35 34 34 40 29 32 28 35 30 32 15 28 8 19 29 33 37 32 38
27 25 22 22 22 21 16 13 12 7 9 4 4 5 9 9 14 18 16 16 24 33 35 41 40 41 38 32 31 31 28 27 25 24 9 35 21 38 34 33 34 32 36 40 42
29 28 24 23 20 21 18 14 11 12 4 4 11 7 8 11 11 11 14 19 16 12 22 27 30 28 31 43 41 32 27 6 10 7 10 20 14 37 25 26 37 33 29 32 36
29 30 26 23 20 23 19 19 17 14 32 12 11 11 13 6 12 12 13 12 11 17 19 14 12 4 4 17 37 40 34 18 7 9 12 24 11 20 15 15 21 19 25 29 35
26 26 26 17 16 21 20 27 36 35 22 14 19 17 22 17 13 15 9 15 19 18 18 9 14 13 11 17 10 24 32 26 28 24 5 12 17 18 19 21 22 18 18 17 18
24 25 27 16 20 21 24 34 37 35 30 21 15 9 13 17 18 17 12 9 6 9 12 9 18 8 14 22 11 5 15 25 15 4 5 7 10 16 15 27 22 20 15 16 18
26 26 28 23 23 28 36 39 35 34 38 29 28 27 25 26 19 17 8 12 6 6 4 8 12 15 18 17 18 15 13 6 5 14 5 3 4 4 6 1 2 3 8 9 14
33 31 31 30 28 33 34 40 34 31 32 30 26 33 33 30 29 20 17 19 13 16 13 12 10 21 20 23 17 17 20 20 8 2 5 16 8 10 9 7 11 12 9 13 13
28 32 33 34 28 31 41 40 43 36 31 27 28 29 26 30 21 25 19 23 22 23 12 12 6 10 11 7 9 4 5 3 7 6 1 5 1 7 14 11 9 17 18 20 17
29 28 32 35 39 38 31 36 37 37 39 41 38 33 31 31 30 29 32 27 13 16 23 17 18 18 19 13 6 7 12 9 11 10 7 12 28 23 23 17 11 18 22 14 10
26 31 32 25 19 27 31 39 42 43 40 41 32 30 27 26 31 30 30 25 22 16 17 15 18 21 26 25 24 21 21 18 20 20 19 28 25 32 22 18 15 22 20 15 19
27 29 33 37 37 38 35 27 30 28 23 27 28 29 30 33 31 31 21 25 18 16 19 20 20 18 24 31 24 20 23 24 22 24 25 24 24 28 25 23 21 26 21 23 25
27 28 28 33 34 34 34 33 20 23 34 38 31 32 30 28 29 34 34 29 26 24 13 17 20 13 13 25 20 17 28 21 23 21 21 22 23 21 23 20 20 21 23 23 17
Wind_Direction
284 285 287 289 291 293 297 298 297 296 297 298 300 303 304 304 304 302 300 301 299 297 289 275 271 272 279 207 201 220 255 260 266 274 318 326 280 263 282 286 239 236 250 257 258
280 284 285 287 288 289 291 293 296 296 293 292 293 298 303 303 299 293 296 300 294 297 295 287 270 263 257 235 211 241 250 256 292 292 297 300 284 245 261 276 251 243 255 264 267
281 282 285 286 288 290 290 290 292 293 293 292 292 295 298 302 305 302 299 294 289 288 297 295 292 285 272 254 231 247 251 260 266 272 282 278 272 261 255 250 267 276 274 255 261
276 278 281 282 283 284 286 288 289 289 290 289 290 290 294 297 295 303 288 286 283 288 288 285 286 281 280 265 250 253 234 256 261 270 270 274 273 268 260 264 255 263 273 271 267
275 277 280 279 281 283 282 284 286 287 288 288 287 290 287 287 296 285 285 277 285 278 280 282 283 279 273 268 269 256 253 240 245 253 253 261 266 273 268 258 261 248 259 260 267
275 278 280 280 280 281 282 283 284 286 287 285 286 288 290 287 296 287 276 277 277 273 273 274 274 268 271 273 271 275 268 257 246 245 253 256 260 262 269 270 258 263 259 256 256
278 279 279 280 282 281 281 282 283 285 285 285 283 283 285 289 286 277 280 277 275 268 265 260 262 259 263 273 278 273 272 264 256 254 258 261 260 252 260 265 265 264 264 261 263
281 281 282 281 282 282 283 281 283 282 281 282 283 282 282 293 288 283 267 266 267 270 264 260 256 254 252 264 266 266 263 266 285 272 261 262 266 253 249 255 258 259 266 268 262
281 281 280 280 280 281 282 282 282 280 281 280 281 281 284 285 283 275 276 269 255 252 255 250 249 245 249 255 263 265 264 269 286 258 264 299 277 259 256 242 252 258 257 259 259
280 278 280 278 278 277 278 279 276 276 275 277 277 281 281 272 280 281 272 262 256 246 244 244 244 245 248 242 241 260 262 273 277 217 289 291 295 270 249 236 244 250 249 256 258
278 276 276 275 276 276 275 275 274 275 271 269 265 266 267 274 271 267 275 269 264 252 241 248 240 238 257 259 268 271 269 268 257 256 288 282 280 263 235 225 236 245 258 258 261
273 271 271 271 270 272 273 270 274 279 278 269 270 273 273 275 266 258 259 254 248 246 245 244 242 247 256 259 262 264 267 267 273 272 283 282 270 268 251 252 249 257 255 259 252
269 269 269 270 268 266 267 271 277 282 282 280 278 275 279 268 269 264 242 242 247 244 240 246 243 246 255 259 260 263 264 269 271 283 272 283 274 269 258 256 245 245 257 256 253
265 265 264 262 262 262 262 269 272 276 285 285 288 281 270 256 258 264 253 244 238 249 247 250 252 249 242 250 256 264 269 276 274 269 262 270 276 271 268 262 257 252 256 255 247
261 263 262 255 254 258 262 261 261 271 302 292 232 183 229 238 233 267 257 233 242 242 249 248 248 247 243 248 249 263 272 272 278 259 258 260 253 277 246 263 257 250 244 256 266
261 255 256 255 253 255 249 246 244 227 249 221 219 202 211 267 258 256 248 229 240 244 248 260 258 250 246 242 253 264 274 271 265 258 229 254 241 267 265 270 275 271 260 261 265
262 260 256 255 253 250 245 231 209 217 242 234 202 190 226 246 283 272 258 245 237 257 269 282 272 269 261 256 250 255 266 276 237 213 246 260 245 258 270 276 276 275 266 260 262
263 262 259 258 254 252 238 210 217 245 233 217 265 268 279 286 272 275 259 253 249 263 272 285 300 259 207 253 256 246 245 228 250 240 255 257 235 265 265 268 269 277 262 258 253
261 260 259 254 248 246 231 209 225 237 251 260 269 288 268 258 291 276 265 279 259 256 257 277 269 249 272 282 296 256 236 254 250 259 280 266 264 270 254 278 275 267 254 253 255
256 257 255 239 234 240 231 230 236 242 242 241 269 264 285 265 299 297 301 300 329 261 233 252 276 313 278 265 255 334 263 233 230 172 226 249 273 267 262 259 250 239 226 225 211
256 251 256 247 236 238 219 232 248 251 246 250 252 257 258 281 296 299 277 297 305 306 270 263 264 265 287 303 306 283 298 235 223 212 202 233 152 68 167 37 186 145 198 221 215
257 255 257 260 250 240 240 230 247 248 250 251 250 253 256 266 278 287 278 273 276 307 290 264 273 280 283 298 283 276 281 284 235 75 249 258 218 179 133 96 207 216 222 230 223
246 251 253 255 252 250 246 241 239 245 249 255 253 250 252 255 273 274 275 272 275 271 281 271 257 302 300 253 227 251 201 349 7 339 188 333 358 118 341 343 310 165 162 192 203
244 247 250 254 254 254 252 244 243 248 263 259 260 264 261 259 253 260 266 272 275 265 260 266 251 256 258 260 278 286 290 288 296 279 306 266 294 300 304 301 302 319 304 351 299
244 248 250 253 259 254 265 268 270 265 268 257 259 258 260 259 255 259 260 271 258 252 245 232 249 257 263 270 270 268 267 271 269 273 276 278 280 292 297 292 293 285 283 289 299
248 249 253 255 253 266 269 263 266 270 257 244 248 258 261 254 251 256 253 253 239 235 243 235 244 250 261 268 269 280 268 268 264 267 268 276 276 278 292 289 287 291 287 270 270
253 256 260 260 262 263 262 255 272 272 265 259 259 267 261 259 262 255 260 254 252 245 244 251 253 270 284 271 264 277 261 273 280 265 267 276 292 301 297 293 304 293 280 273 269